CW9825 Weather Reports


Display with metric or nautical units.
time (UTC)temp
F
wind
direction
speed
MPH
gust
MPH
rain 1hr
in
rain 24hr
in
rain mn
in
humidity
%
barometer
mb
20181214171719 29 171 4.0 8.0 0.00 0.00 0.00 78 1019.4
20181214171042 29 151 4.0 8.0 0.00 0.00 0.00 78 1019.6
20181214170545 29 188 4.0 9.0 0.00 0.00 0.00 78 1019.6
20181214170057 28 153 4.0 9.0 0.00 0.00 0.00 79 1019.7
20181214165547 28 155 3.0 5.0 0.00 0.00 0.00 80 1019.6
20181214165045 28 160 1.0 5.0 0.00 0.00 0.00 79 1019.6
20181214164615 28 164 1.0 7.0 0.00 0.00 0.00 79 1019.6
20181214164043 28 175 2.0 8.0 0.00 0.00 0.00 79 1019.6
20181214163544 28 192 3.0 8.0 0.00 0.00 0.00 79 1019.6
20181214163154 28 154 3.0 7.0 0.00 0.00 0.00 79 1019.6
20181214162544 28 162 3.0 8.0 0.00 0.00 0.00 79 1019.6
20181214162046 27 186 3.0 8.0 0.00 0.00 0.00 79 1019.5
20181214161554 27 194 3.0 7.0 0.00 0.00 0.00 80 1019.5
20181214161043 26 190 4.0 7.0 0.00 0.00 0.00 81 1019.4
20181214160540 25 192 4.0 6.0 0.00 0.00 0.00 82 1019.4
20181214160144 24 202 4.0 7.0 0.00 0.00 0.00 84 1019.4
20181214155539 23 186 4.0 7.0 0.00 0.00 0.00 85 1019.4
20181214155041 23 186 3.0 7.0 0.00 0.00 0.00 86 1019.4
20181214154631 22 196 4.0 7.0 0.00 0.00 0.00 87 1019.4
20181214154038 22 191 2.0 7.0 0.00 0.00 0.00 87 1019.4
20181214153537 22 180 3.0 7.0 0.00 0.00 0.00 87 1019.3
20181214153057 21 149 3.0 7.0 0.00 0.00 0.00 87 1019.2
20181214152535 21 180 3.0 7.0 0.00 0.00 0.00 87 1019.0
20181214152036 21 158 4.0 7.0 0.00 0.00 0.00 88 1018.9
20181214151600 21 173 2.0 7.0 0.00 0.00 0.00 88 1019.0
20181214151032 20 187 4.0 7.0 0.00 0.00 0.00 87 1018.8
20181214150534 20 205 3.0 6.0 0.00 0.00 0.00 87 1018.7
20181214150100 20 188 1.0 6.0 0.00 0.00 0.00 87 1018.7
20181214145531 20 186 2.0 4.0 0.00 0.00 0.00 86 1018.8
20181214145031 20 187 1.0 4.0 0.00 0.00 0.00 86 1018.9
20181214144641 20 159 2.0 6.0 0.00 0.00 0.00 87 1018.9
20181214144030 20 159 3.0 6.0 0.00 0.00 0.00 86 1018.8
20181214143531 20 184 1.0 3.0 0.00 0.00 0.00 86 1018.7
20181214143032 21 187 1.0 3.0 0.00 0.00 0.00 86 1018.8
20181214142531 21 185 1.0 4.0 0.00 0.00 0.00 86 1018.8
20181214142027 21 184 1.0 4.0 0.00 0.00 0.00 86 1018.6
20181214141624 21 167 2.0 4.0 0.00 0.00 0.00 86 1018.7
20181214141027 21 194 1.0 4.0 0.00 0.00 0.00 86 1018.6
20181214140524 21 186 2.0 8.0 0.00 0.00 0.00 86 1018.4
20181214140117 21 206 3.0 8.0 0.00 0.00 0.00 86 1018.2
20181214135523 21 195 3.0 9.0 0.00 0.00 0.00 86 1018.1
20181214135023 21 200 4.0 9.0 0.00 0.00 0.00 85 1018.1
20181214134541 22 170 4.0 8.0 0.00 0.00 0.00 85 1018.0
20181214134023 22 178 4.0 8.0 0.00 0.00 0.00 85 1018.2
20181214133521 22 173 3.0 6.0 0.00 0.00 0.00 85 1018.2
20181214133049 22 165 3.0 7.0 0.00 0.00 0.00 86 1018.2
20181214132518 22 158 3.0 7.0 0.00 0.00 0.00 86 1018.2
20181214132016 22 160 1.0 3.0 0.00 0.00 0.00 86 1018.1
20181214131558 22 179 1.0 3.0 0.00 0.00 0.00 85 1017.9
20181214131020 22 206 1.0 5.0 0.00 0.00 0.00 85 1017.9
20181214130516 22 196 3.0 5.0 0.00 0.00 0.00 84 1017.8
20181214130044 22 165 2.0 5.0 0.00 0.00 0.00 84 1017.8
20181214125515 23 159 2.0 7.0 0.00 0.00 0.00 84 1017.9
20181214125015 23 155 4.0 7.0 0.00 0.00 0.00 84 1018.0
20181214124515 23 155 4.0 6.0 0.00 0.00 0.00 84 1017.6
20181214124011 23 187 2.0 8.0 0.00 0.00 0.00 83 1017.6
20181214123510 23 159 3.0 8.0 0.00 0.00 0.00 82 1017.4
20181214123027 23 147 4.0 7.0 0.00 0.00 0.00 82 1017.3
20181214122507 24 150 3.0 6.0 0.00 0.00 0.00 80 1017.3
20181214122006 24 155 1.0 5.0 0.00 0.00 0.00 79 1017.2
20181214121513 25 155 1.0 5.0 0.00 0.00 0.00 79 1017.1
20181214121004 25 149 2.0 4.0 0.00 0.00 0.00 78 1017.2
20181214120502 26 129 2.0 4.0 0.00 0.00 0.00 78 1017.2
20181214115559 27 175 1.0 4.0 0.00 0.00 0.00 77 1017.0
20181214115058 27 166 2.0 6.0 0.00 0.00 0.00 77 1016.8
20181214114644 28 159 3.0 7.0 0.00 0.00 0.00 76 1016.8
20181214114058 28 159 4.0 7.0 0.00 0.00 0.00 76 1017.0
20181214113554 29 172 2.0 5.0 0.00 0.00 0.00 77 1017.0
20181214113153 29 238 1.0 2.0 0.00 0.00 0.00 76 1016.8
20181214112554 30 238 0.0 3.0 0.00 0.00 0.00 76 1016.8
20181214112053 30 238 0.0 3.0 0.00 0.00 0.00 76 1016.8
20181214111640 30 238 0.0 3.0 0.00 0.00 0.00 76 1016.6
20181214111049 30 242 1.0 7.0 0.00 0.00 0.00 76 1016.7
20181214110549 30 249 1.0 8.0 0.00 0.00 0.00 75 1016.5
20181214110203 31 236 1.0 8.0 0.00 0.00 0.00 75 1016.4
20181214105547 31 248 3.0 8.0 0.00 0.00 0.00 75 1016.4
20181214105048 31 252 2.0 6.0 0.00 0.00 0.00 75 1016.5
20181214104659 31 238 4.0 10.0 0.00 0.00 0.00 75 1016.2
20181214104044 31 250 3.0 13.0 0.00 0.00 0.00 75 1016.1
20181214103547 31 254 3.0 13.0 0.00 0.00 0.00 74 1016.1
20181214103209 31 255 5.0 12.0 0.00 0.00 0.00 74 1015.9
20181214102543 31 252 4.0 12.0 0.00 0.00 0.00 74 1015.8
20181214102045 32 225 3.0 13.0 0.00 0.00 0.00 74 1015.8
20181214101624 32 238 6.0 13.0 0.00 0.00 0.00 74 1015.8
20181214101044 32 198 6.0 13.0 0.00 0.00 0.00 74 1015.7
20181214100541 32 273 5.0 22.0 0.00 0.00 0.00 73 1015.7
20181214100131 32 240 7.0 22.0 0.00 0.00 0.00 73 1015.7
20181214095542 32 269 8.0 16.0 0.00 0.00 0.00 73 1015.6
20181214095037 32 240 7.0 15.0 0.00 0.00 0.00 72 1015.6
20181214094542 32 267 7.0 15.0 0.00 0.00 0.00 72 1015.7
20181214094037 33 237 6.0 15.0 0.00 0.00 0.00 72 1015.6
20181214093101 33 250 6.0 14.0 0.00 0.00 0.00 72 1015.6
20181214092536 33 260 5.0 13.0 0.00 0.00 0.00 72 1015.4
20181214092035 33 256 5.0 12.0 0.00 0.00 0.00 72 1015.5
20181214091543 33 263 6.0 16.0 0.00 0.00 0.00 72 1015.4
20181214091034 33 193 7.0 17.0 0.00 0.00 0.00 72 1015.4
20181214090532 33 263 7.0 17.0 0.00 0.00 0.00 72 1015.4
20181214090048 32 252 6.0 14.0 0.00 0.00 0.00 72 1015.4
20181214085534 32 250 8.0 14.0 0.00 0.00 0.00 73 1015.5
20181214085029 32 243 6.0 14.0 0.00 0.00 0.00 73 1015.6
20181214084543 32 214 5.0 15.0 0.00 0.00 0.00 73 1015.6
20181214084031 32 253 7.0 17.0 0.00 0.00 0.00 73 1015.8
20181214083527 32 258 6.0 17.0 0.00 0.00 0.00 73 1015.5
20181214083026 32 272 7.0 13.0 0.00 0.00 0.00 73 1015.4
20181214082524 32 248 5.0 13.0 0.00 0.00 0.00 73 1015.4
20181214082023 33 238 5.0 12.0 0.00 0.00 0.00 72 1015.2
20181214081537 33 261 4.0 12.0 0.00 0.00 0.00 73 1015.2
20181214081022 32 244 6.0 15.0 0.00 0.00 0.00 73 1015.1
20181214080518 32 250 4.0 15.0 0.00 0.00 0.00 73 1015.1
20181214080022 32 242 6.0 10.0 0.00 0.00 0.00 73 1015.0
20181214075520 32 211 5.0 10.0 0.00 0.00 0.00 73 1015.1
20181214075017 32 242 4.0 12.0 0.00 0.00 0.00 73 1015.2
20181214074531 32 289 5.0 12.0 0.00 0.00 0.00 73 1015.3
20181214074018 32 236 4.0 12.0 0.00 0.00 0.00 73 1015.2
20181214073515 32 246 6.0 12.0 0.00 0.00 0.00 73 1015.1
20181214073104 32 246 4.0 12.0 0.00 0.00 0.00 73 1015.1
20181214072514 32 236 6.0 12.0 0.00 0.00 0.00 73 1014.9
20181214072013 32 222 5.0 13.0 0.00 0.00 0.00 73 1014.9
20181214071516 32 257 4.0 13.0 0.00 0.00 0.00 73 1014.9
20181214071010 32 250 5.0 11.0 0.00 0.00 0.00 73 1014.9
20181214070509 32 259 4.0 12.0 0.00 0.00 0.00 73 1015.0
20181214070009 32 227 3.0 11.0 0.00 0.00 0.00 73 1014.8
20181214065508 32 263 2.0 11.0 0.00 0.00 0.00 73 1014.8
20181214065007 32 244 4.0 10.0 0.00 0.00 0.00 73 1014.8
20181214064525 32 225 3.0 10.0 0.00 0.00 0.00 73 1015.0
20181214064004 32 211 3.0 9.0 0.00 0.00 0.00 73 1014.9
20181214063503 32 213 3.0 8.0 0.00 0.00 0.00 73 1015.0
20181214063009 32 244 2.0 6.0 0.00 0.00 0.00 73 1015.1
20181214062502 32 209 3.0 9.0 0.00 0.00 0.00 73 1015.2
20181214062001 32 221 3.0 9.0 0.00 0.00 0.00 73 1015.3
20181214061619 32 238 2.0 9.0 0.00 0.00 0.00 74 1015.3
20181214061059 32 222 4.0 9.0 0.00 0.00 0.00 74 1015.2
20181214060556 32 199 3.0 9.0 0.00 0.00 0.00 74 1015.2
20181214060255 32 205 2.0 9.0 0.00 0.00 0.00 74 1015.3
20181214055601 32 217 3.0 6.0 0.00 0.00 0.04 74 1015.1
20181214055055 32 225 2.0 10.0 0.00 0.00 0.04 73 1015.3
20181214054703 32 209 3.0 11.0 0.00 0.00 0.04 74 1015.4
20181214054059 32 261 3.0 9.0 0.00 0.00 0.04 74 1015.3
20181214053600 32 259 3.0 8.0 0.00 0.00 0.04 74 1015.4
20181214053235 32 213 2.0 13.0 0.00 0.00 0.04 74 1015.3
20181214052600 32 209 3.0 13.0 0.00 0.00 0.04 75 1015.2
20181214052056 32 255 3.0 9.0 0.00 0.00 0.04 76 1015.3
20181214051639 32 198 2.0 8.0 0.00 0.00 0.04 77 1015.2
20181214051054 31 225 3.0 9.0 0.00 0.00 0.04 78 1015.2
20181214050553 31 207 2.0 15.0 0.00 0.00 0.04 79 1015.3
20181214050117 31 223 5.0 15.0 0.00 0.00 0.04 80 1015.3
20181214045553 30 225 3.0 10.0 0.00 0.00 0.04 82 1015.3
20181214045058 30 249 4.0 10.0 0.00 0.00 0.04 83 1015.2
20181214044655 29 234 3.0 12.0 0.00 0.00 0.04 87 1015.2
20181214044055 27 242 4.0 12.0 0.00 0.00 0.04 91 1015.2
20181214043555 26 231 3.0 12.0 0.00 0.00 0.04 95 1015.3
20181214043148 24 220 3.0 9.0 0.00 0.00 0.04 96 1015.2
20181214042552 23 215 1.0 5.0 0.00 0.00 0.04 94 1015.3
20181214042051 22 196 1.0 4.0 0.00 0.00 0.04 94 1015.5
20181214041709 22 178 2.0 4.0 0.00 0.00 0.04 94 1015.4
20181214041050 22 184 1.0 4.0 0.00 0.00 0.04 94 1015.6
20181214040551 22 179 2.0 5.0 0.00 0.00 0.04 94 1015.7
20181214040153 22 178 2.0 6.0 0.00 0.00 0.04 94 1015.7
20181214035555 22 183 2.0 6.0 0.00 0.00 0.04 94 1015.8
20181214035051 21 184 1.0 5.0 0.00 0.00 0.04 94 1015.8
20181214034642 21 178 2.0 4.0 0.00 0.00 0.04 94 1015.9
20181214034050 21 184 1.0 4.0 0.00 0.00 0.04 93 1016.0
20181214033550 21 186 1.0 3.0 0.00 0.00 0.04 93 1016.0
20181214033120 21 187 0.0 3.0 0.00 0.00 0.04 93 1016.1
20181214032552 21 187 0.0 3.0 0.00 0.00 0.04 93 1016.0
20181214032054 21 184 1.0 2.0 0.00 0.00 0.04 93 1015.9
20181214031638 21 184 0.0 2.0 0.00 0.00 0.04 92 1015.9
20181214031048 22 184 0.0 3.0 0.00 0.00 0.04 93 1016.0
20181214030550 22 184 1.0 3.0 0.00 0.00 0.04 93 1016.1
20181214030134 22 183 1.0 3.0 0.00 0.00 0.04 93 1016.1
20181214025547 22 183 1.0 5.0 0.00 0.00 0.04 93 1016.2
20181214025047 22 183 2.0 6.0 0.00 0.00 0.04 93 1016.2
20181214024606 22 183 2.0 6.0 0.00 0.00 0.04 93 1016.2
20181214024046 22 188 2.0 4.0 0.00 0.00 0.04 93 1016.1
20181214023551 22 188 1.0 4.0 0.00 0.00 0.04 93 1016.2
20181214023152 22 188 2.0 4.0 0.00 0.00 0.04 93 1016.3
20181214022550 22 188 2.0 3.0 0.00 0.00 0.04 93 1016.4
20181214022046 22 188 1.0 3.0 0.00 0.00 0.04 92 1016.5
20181214021554 22 188 1.0 3.0 0.00 0.00 0.04 92 1016.5
20181214021047 22 188 1.0 3.0 0.00 0.00 0.04 92 1016.6
20181214020546 22 188 1.0 3.0 0.00 0.00 0.04 92 1016.6
20181214020115 23 188 2.0 4.0 0.00 0.00 0.04 91 1016.6
20181214015546 23 185 2.0 4.0 0.00 0.00 0.04 92 1016.6
20181214015043 23 180 0.0 4.0 0.00 0.00 0.04 91 1016.6
20181214014641 23 173 2.0 4.0 0.00 0.00 0.04 91 1016.6
20181214014045 23 178 2.0 7.0 0.00 0.00 0.04 91 1016.7
20181214013541 23 175 3.0 7.0 0.00 0.00 0.04 92 1016.8
20181214013105 23 186 2.0 6.0 0.00 0.00 0.04 91 1016.7
20181214012539 23 191 3.0 6.0 0.00 0.00 0.04 91 1016.8
20181214012042 24 187 1.0 4.0 0.00 0.00 0.04 91 1016.9
20181214011604 24 186 2.0 4.0 0.00 0.00 0.04 90 1017.0
20181214011039 24 192 1.0 6.0 0.00 0.00 0.04 90 1017.1
20181214010537 24 194 2.0 7.0 0.00 0.00 0.04 90 1017.0
20181214010108 24 181 2.0 7.0 0.00 0.00 0.04 90 1016.9
20181214005536 24 159 3.0 6.0 0.00 0.00 0.04 90 1017.1
20181214005040 24 170 3.0 6.0 0.00 0.00 0.04 90 1017.1
20181214004636 24 173 2.0 5.0 0.00 0.00 0.04 90 1017.2
20181214004035 24 175 2.0 5.0 0.00 0.00 0.04 89 1017.2
20181214003537 24 178 2.0 6.0 0.00 0.00 0.04 89 1017.0
20181214003049 24 188 3.0 6.0 0.00 0.00 0.04 89 1017.0
20181214002538 24 182 2.0 5.0 0.00 0.00 0.04 90 1017.1
20181214002041 24 181 1.0 3.0 0.00 0.00 0.04 90 1017.0
20181214001554 24 181 0.0 3.0 0.00 0.00 0.04 89 1017.1
20181214001035 24 181 0.0 3.0 0.00 0.00 0.04 89 1017.1
20181214000533 24 181 1.0 3.0 0.00 0.00 0.04 88 1017.1
20181214000128 25 181 1.0 4.0 0.00 0.00 0.04 88 1017.3
20181213235531 25 181 1.0 4.0 0.00 0.00 0.04 87 1017.2
20181213235032 25 182 2.0 4.0 0.00 0.00 0.04 87 1017.3
20181213234622 25 178 2.0 5.0 0.00 0.00 0.04 87 1017.3
20181213234030 26 173 2.0 5.0 0.00 0.00 0.04 86 1017.3
20181213233533 26 169 1.0 5.0 0.00 0.00 0.04 86 1017.3
20181213233058 26 165 2.0 5.0 0.00 0.00 0.04 86 1017.1
20181213232529 26 172 2.0 4.0 0.00 0.00 0.04 86 1017.2
20181213232029 27 166 2.0 5.0 0.00 0.00 0.04 86 1017.3
20181213231616 27 166 2.0 5.0 0.00 0.00 0.04 87 1017.2
20181213231028 27 167 3.0 4.0 0.00 0.00 0.04 86 1017.3
20181213230528 27 161 1.0 3.0 0.00 0.00 0.04 85 1017.3
20181213230049 28 161 2.0 5.0 0.00 0.00 0.04 85 1017.2
20181213225528 29 161 2.0 5.0 0.00 0.00 0.04 83 1017.2
20181213225028 29 161 3.0 6.0 0.00 0.00 0.04 83 1017.2
20181213224554 30 148 3.0 7.0 0.00 0.00 0.04 83 1017.1
20181213224027 30 159 4.0 7.0 0.00 0.00 0.04 83 1017.1
20181213223525 31 159 2.0 5.0 0.00 0.00 0.04 82 1017.1
20181213223048 31 159 2.0 5.0 0.00 0.00 0.04 81 1017.0
20181213222525 32 153 3.0 5.0 0.00 0.00 0.04 80 1017.0
20181213222025 33 170 1.0 4.0 0.00 0.00 0.04 78 1017.0
20181213221024 34 229 0.0 4.0 0.00 0.00 0.04 76 1017.0
20181213220525 35 244 0.0 5.0 0.00 0.00 0.04 75 1017.0
20181213220052 35 217 1.0 5.0 0.00 0.00 0.04 74 1016.7
20181213215525 35 227 0.0 5.0 0.00 0.00 0.04 74 1016.7
20181213215023 35 240 1.0 5.0 0.00 0.00 0.04 74 1016.6
20181213214527 35 248 0.0 4.0 0.00 0.00 0.04 74 1016.5
20181213214021 35 246 2.0 7.0 0.00 0.00 0.04 73 1016.5
20181213213521 35 223 2.0 7.0 0.00 0.00 0.04 73 1016.4
20181213213030 36 205 2.0 5.0 0.00 0.00 0.04 72 1016.4
20181213212519 36 241 1.0 5.0 0.00 0.00 0.04 72 1016.3
20181213212022 36 247 0.0 6.0 0.00 0.00 0.04 73 1016.2
20181213211553 36 234 1.0 7.0 0.00 0.00 0.04 72 1016.1
20181213211018 36 216 1.0 7.0 0.00 0.00 0.04 72 1016.1
20181213210517 36 218 1.0 6.0 0.00 0.00 0.04 72 1016.0
20181213210032 36 192 0.0 4.0 0.00 0.00 0.04 72 1015.9
20181213205521 36 192 0.0 4.0 0.00 0.00 0.04 71 1016.0
20181213205017 36 230 2.0 5.0 0.00 0.00 0.04 70 1016.0
20181213204525 36 250 2.0 5.0 0.00 0.00 0.04 71 1015.9
20181213204015 36 263 3.0 9.0 0.00 0.00 0.04 70 1015.9
20181213203515 36 265 1.0 9.0 0.00 0.00 0.04 70 1015.8
20181213203027 36 245 2.0 7.0 0.00 0.00 0.04 71 1015.8
20181213202513 36 264 1.0 8.0 0.00 0.00 0.04 71 1015.8
20181213202012 36 257 4.0 12.0 0.00 0.00 0.04 72 1016.0
20181213201524 36 278 4.0 12.0 0.00 0.00 0.04 73 1016.0
20181213201009 35 275 6.0 13.0 0.00 0.00 0.04 73 1015.9
20181213200508 35 292 6.0 13.0 0.00 0.00 0.04 73 1016.0
20181213200014 35 281 6.0 12.0 0.00 0.00 0.04 74 1016.1
20181213195508 35 302 7.0 13.0 0.00 0.00 0.04 73 1016.0
20181213195008 35 272 7.0 13.0 0.00 0.00 0.04 74 1015.9
20181213194509 35 287 8.0 12.0 0.00 0.00 0.04 74 1016.0
20181213194004 35 261 6.0 12.0 0.00 0.00 0.04 74 1015.9
20181213193503 34 288 6.0 13.0 0.00 0.00 0.04 74 1016.0
20181213193004 34 306 7.0 13.0 0.00 0.00 0.04 74 1015.8
20181213192601 34 288 8.0 13.0 0.00 0.00 0.04 74 1015.8
20181213192100 34 266 8.0 13.0 0.00 0.00 0.04 75 1015.8
20181213191723 34 295 6.0 11.0 0.00 0.00 0.04 75 1015.7
20181213191103 34 284 6.0 11.0 0.00 0.00 0.04 75 1015.7
20181213190557 34 254 4.0 15.0 0.00 0.00 0.04 76 1015.7
20181213190157 34 292 9.0 15.0 0.00 0.00 0.04 75 1015.7
20181213185557 34 284 6.0 14.0 0.00 0.00 0.04 77 1015.7
20181213185056 33 288 9.0 14.0 0.00 0.00 0.04 76 1015.7
20181213184646 33 280 7.0 13.0 0.00 0.00 0.04 77 1015.7
20181213184101 33 286 7.0 15.0 0.00 0.00 0.04 77 1015.7
20181213183559 33 273 6.0 15.0 0.00 0.00 0.04 77 1015.7
20181213183138 33 257 7.0 12.0 0.00 0.00 0.04 78 1015.7
20181213182557 33 263 7.0 12.0 0.00 0.00 0.04 78 1015.7
20181213182053 33 297 7.0 15.0 0.00 0.00 0.04 79 1015.7
20181213181606 33 271 8.0 15.0 0.00 0.00 0.04 79 1015.7
20181213181103 33 252 6.0 15.0 0.00 0.00 0.04 79 1015.8
20181213180553 33 281 4.0 15.0 0.00 0.00 0.04 79 1015.8
20181213180225 33 304 6.0 14.0 0.00 0.00 0.04 79 1015.7
20181213175553 32 278 6.0 14.0 0.00 0.00 0.04 80 1015.7
20181213175053 33 288 7.0 14.0 0.00 0.00 0.04 80 1015.9
20181213174723 33 269 6.0 13.0 0.00 0.00 0.04 80 1015.8
20181213174051 33 295 7.0 13.0 0.00 0.00 0.04 80 1015.7
20181213173552 33 253 8.0 12.0 0.00 0.00 0.04 80 1015.7
20181213173115 33 281 7.0 12.0 0.00 0.00 0.04 80 1015.5
20181213172549 33 291 7.0 11.0 0.00 0.00 0.04 81 1015.6